Simultaneous Nadir Overpasses (SNOs) Predictions

Prediction of SNOs between GOES-16 and FY3D Satellite Orbit:

Table of predicted SNOs for the next 14.0 days since TLE Epoch: 6/4/2022
Index Date Time (GOES-16) GOES-16 Lat,Lon FY3D Lat,Lon Distance(km) Time Diff (sec)
1 06/04/2022 06:33:45 -0.00, -75.19 -0.79, -71.65 403.66 80
2 06/05/2022 18:58:51 -0.01, -75.20 -0.45, -77.05 212.18 80
3 06/06/2022 18:37:48 -0.00, -75.20 0.61, -72.61 296.34 80
4 06/08/2022 07:02:46 0.01, -75.21 0.65, -77.98 315.87 80
5 06/09/2022 06:41:43 0.00, -75.22 -0.40, -73.53 192.89 80
6 06/10/2022 19:06:49 -0.01, -75.23 -0.82, -78.94 422.15 80
7 06/11/2022 18:45:45 -0.00, -75.24 0.18, -74.48 86.77 80
8 06/14/2022 06:52:19 -0.00, -75.26 0.02, -75.41 16.28 80
9 06/15/2022 06:31:15 -0.01, -75.27 -0.98, -70.95 492.60 80
10 06/16/2022 18:53:41 0.01, -75.29 -0.23, -76.36 122.13 80
11 06/17/2022 18:37:57 0.01, -75.30 0.78, -71.91 387.33 80
